Location: Georgenberg
(48.1500°N, 16.2500°E)
Time: 14:49:59
(UTC+01:00)

N. Korean satellite - Pass Details

Date: 04 December 2022
Orbit: 407 x 441 km, 97.3° (Epoch: 05 February)

Event Time Altitude Azimuth Distance (km) Brightness Sun altitude
Rises 05:55:53 0° 4° (N) 2,527 10.1 -14.6°
Reaches altitude 10° 05:58:04 10° 355° (N) 1,641 9.0 -14.3°
Maximum altitude 06:01:16 33° 290° (WNW) 802 7.1 -13.8°
Drops below altitude 10° 06:04:25 10° 225° (SW) 1,608 8.9 -13.3°
Sets 06:06:32 0° 215° (SW) 2,468 10.0 -13.0°
